Change the Weather History Date:

Sunday, December 9, 2012

  Actual Average Record
Temperature  
Mean Temperature 28 °F -  
Max Temperature 32 °F 27 °F 51 °F (1990)
Min Temperature 23 °F 11 °F -17 °F (1958)
Degree Days  
Heating Degree Days 38    
Moisture  
Dew Point 24 °F    
Average Humidity 84    
Maximum Humidity 100    
Minimum Humidity 69    
Precipitation  
Precipitation 0.00 in - - ()
Sea Level Pressure  
Sea Level Pressure 30.02 in    
Wind  
Wind Speed 5 mph (NE)    
Max Wind Speed 18 mph    
Max Gust Speed 26 mph    
Visibility 5 miles    
Events Fog , Snow    
Averages and records for this station are not official NWS values.
T = Trace of Precipitation, MM = Missing Value Source: NWS Daily Summary

Daily Weather History Graph

Daily Weather History Graph

Search for Another Location

Airport or City:

Trip Planner

Search our weather history database for the weather conditions in past years. The results will help you decide how hot, cold, wet, or windy it might be!

Date:

Astronomy

Dec. 09, 2012 Rise Set
Actual Time 7:36 AM CST 4:16 PM CST
Civil Twilight 7:01 AM CST 4:51 PM CST
Nautical Twilight 6:23 AM CST 5:29 PM CST
Astronomical Twilight 5:46 AM CST 6:05 PM CST
Moon 2:58 AM CST (12/9) 1:32 PM CST (12/9)
Length of Visible Light 9h 49m
Length of Day
8h 39m
Waning Crescent, 18% of the Moon is Illuminated
Dec 9
Waning Crescent
Dec 13
New
Dec 19
First Quarter
Dec 28
Full
Jan 4
Last Quarter

Hourly Weather History & Observations

Time (CST) Temp. Windchill Dew Point Humidity Pressure Visibility Wind Dir Wind Speed Gust Speed Precip Events Conditions
12:53 AM 23.0 °F - 18.0 °F 81% 30.18 in 10.0 mi Calm Calm - N/A   Clear
1:53 AM 24.1 °F - 19.0 °F 81% 30.17 in 10.0 mi Calm Calm - N/A   Overcast
2:53 AM 26.1 °F 21.9 °F 19.9 °F 78% 30.16 in 10.0 mi SE 3.5 mph - N/A   Overcast
3:53 AM 27.0 °F - 19.9 °F 75% 30.14 in 10.0 mi Calm Calm - N/A   Overcast
4:53 AM 26.1 °F 21.9 °F 21.0 °F 81% 30.16 in 10.0 mi ENE 3.5 mph - N/A   Overcast
5:53 AM 27.0 °F 23.0 °F 21.0 °F 78% 30.15 in 10.0 mi NE 3.5 mph - N/A   Overcast
6:53 AM 27.0 °F - 21.9 °F 81% 30.16 in 10.0 mi Calm Calm - N/A   Overcast
7:25 AM 26.6 °F 21.2 °F 21.2 °F 80% 30.11 in 6.0 mi NNE 4.6 mph - 0.00 in Snow Light Snow
7:35 AM 26.6 °F 20.0 °F 21.2 °F 80% 30.10 in 6.0 mi NNE 5.8 mph - 0.00 in Snow Light Snow
7:53 AM 27.0 °F 21.6 °F 21.9 °F 81% 30.15 in 10.0 mi NNE 4.6 mph - 0.00 in   Overcast
8:53 AM 28.0 °F 22.8 °F 21.0 °F 75% 30.14 in 10.0 mi East 4.6 mph - N/A   Overcast
9:53 AM 28.9 °F 21.9 °F 21.0 °F 72% 30.14 in 10.0 mi ENE 6.9 mph - N/A   Overcast
10:53 AM 30.0 °F 24.1 °F 23.0 °F 75% 30.13 in 10.0 mi NE 5.8 mph - 0.00 in   Overcast
11:53 AM 30.9 °F 25.2 °F 23.0 °F 72% 30.09 in 10.0 mi ENE 5.8 mph - N/A   Overcast
12:53 PM 32.0 °F 24.8 °F 23.0 °F 69% 30.06 in 10.0 mi NE 8.1 mph - N/A   Overcast
1:53 PM 30.9 °F 22.8 °F 21.9 °F 69% 30.04 in 10.0 mi ENE 9.2 mph - N/A   Overcast
2:53 PM 30.9 °F 21.7 °F 23.0 °F 72% 30.00 in 10.0 mi NE 11.5 mph - N/A   Overcast
3:53 PM 30.9 °F 23.5 °F 21.9 °F 69% 30.00 in 10.0 mi ENE 8.1 mph - N/A   Overcast
4:53 PM 30.0 °F 21.7 °F 21.9 °F 72% 29.99 in 10.0 mi NE 9.2 mph - N/A   Overcast
5:53 PM 30.0 °F 21.1 °F 21.9 °F 72% 29.99 in 10.0 mi ENE 10.4 mph - N/A   Overcast
6:18 PM 30.2 °F 21.3 °F 24.8 °F 80% 29.95 in 4.0 mi NE 10.4 mph - 0.00 in Snow Light Snow
6:53 PM 28.9 °F 21.1 °F 25.0 °F 85% 29.99 in 2.0 mi NE 8.1 mph - 0.00 in Snow Light Snow
7:01 PM 28.4 °F 19.7 °F 24.8 °F 86% 29.95 in 1.2 mi NE 9.2 mph - 0.00 in Snow Light Snow
7:09 PM 28.4 °F 22.2 °F 26.6 °F 93% 29.95 in 1.2 mi ENE 5.8 mph - 0.00 in Snow Light Snow
7:21 PM 28.4 °F 22.2 °F 26.6 °F 93% 29.95 in 1.2 mi NE 5.8 mph - 0.00 in Snow Light Snow
7:44 PM 28.4 °F 21.2 °F 26.6 °F 93% 29.95 in 1.0 mi NE 6.9 mph - 0.00 in Snow Light Snow
7:53 PM 28.9 °F 21.9 °F 27.0 °F 92% 29.99 in 1.0 mi NNE 6.9 mph - 0.00 in Snow Light Snow
8:01 PM 28.4 °F 21.2 °F 26.6 °F 93% 29.95 in 1.0 mi NNE 6.9 mph - 0.00 in Snow Light Snow
8:23 PM 28.4 °F 21.2 °F 26.6 °F 93% 29.93 in 1.0 mi NNE 6.9 mph - 0.00 in Snow Light Snow
8:36 PM 28.4 °F 22.2 °F 26.6 °F 93% 29.93 in 1.0 mi NNE 5.8 mph - 0.00 in Snow Light Snow
8:45 PM 28.4 °F 20.4 °F 26.6 °F 93% 29.92 in 0.8 mi NNE 8.1 mph - 0.00 in Snow Light Snow
8:53 PM 28.9 °F 21.9 °F 27.0 °F 92% 29.96 in 0.5 mi NNE 6.9 mph - 0.00 in Fog , Snow Snow
9:53 PM 28.9 °F 20.4 °F 27.0 °F 92% 29.94 in 0.8 mi NE 9.2 mph - 0.00 in Snow Light Snow
10:03 PM 28.4 °F 19.1 °F 28.4 °F 100% 29.90 in 1.0 mi NE 10.4 mph - 0.00 in Snow Light Snow
10:23 PM 28.4 °F 22.2 °F 28.4 °F 100% 29.89 in 0.8 mi ENE 5.8 mph - 0.00 in Snow Light Snow
10:53 PM 28.9 °F 20.4 °F 28.0 °F 96% 29.92 in 0.8 mi NNE 9.2 mph - 0.00 in Snow Light Snow
11:06 PM 30.2 °F 20.8 °F 28.4 °F 93% 29.88 in 1.2 mi NNE 11.5 mph - 0.00 in Snow Light Snow
11:16 PM 30.2 °F 18.5 °F 28.4 °F 93% 29.87 in 1.2 mi NNE 17.3 mph 21.9 mph 0.00 in Snow Light Snow
11:38 PM 28.4 °F 15.8 °F 26.6 °F 93% 29.87 in 0.8 mi NNE 18.4 mph 26.5 mph 0.00 in Snow Light Snow
11:53 PM 28.9 °F 16.9 °F 27.0 °F 92% 29.90 in 0.8 mi NNE 17.3 mph 25.3 mph 0.00 in Snow Light Snow